User: anonymous   Login
Location: Lafig�re
(44.4503°N, 4.0357°E)
Time: 11:04:03
(UTC+00:00)
Language:

Cosmos 2026 Rocket - Orbit

View from above orbital plane
View from above orbital plane
View from above satellite
View from above satellite

Ground track
Ground track

The orbit data is extracted from the following two-line orbital elements,

1 20046U 89042B   20337.58773239  .00000027  00000-0  11417-4 0  9991
2 20046  82.9383  80.8417 0043214 122.2500 238.2857 13.78204204583205
Epoch (UTC): 02 December 2020 14:06:20
Eccentricity: 0.0043214
inclination: 82.9383°
perigee height: 938 km
apogee height: 1002 km
right ascension of ascending node: 80.8417°
argument of perigee: 122.2500°
revolutions per day: 13.78204204
mean anomaly at epoch: 238.2857°
orbit number at epoch: 58320

The dashed part of the orbit path shows where the satellite is in the earth's shadow,  

DLR